Location: Paderno d�Adda
(45.6667°N, 9.4333°E)
Time: 20:34:47
(UTC+00:00)

Cosmos 1833 Rocket - Pass Details

Date: 19 September 2020
Orbit: 831 x 841 km, 71.0° (Epoch: 27 October)

Event Time Altitude Azimuth Distance (km) Brightness Sun altitude
Rises 21:27:27 0° 328° (NNW) 3,406 6.8 -37.5°
Reaches altitude 10° 21:30:00 10° 322° (NW) 2,467 5.8 -37.8°
Enters shadow 21:32:48 27° 305° (NW) 1,557 4.5 -38.1°
